Location: Allonne
(49.4086°N, 2.1143°E)
Time: 08:06:22
(UTC+00:00)

Cosmos 1763 Rocket - Visible Passes

Search period start: 24 September 2023 00:00
Search period end: 04 October 2023 00:00
Orbit: 732 x 777 km, 74.0° (Epoch: 23 September)

Date Brightness Start Highest point End Pass type
(mag) Time Alt. Az. Time Alt. Az. Time Alt. Az.
24 Sep 5.6 19:44:32 10° NNE 19:46:25 12° NE 19:47:11 12° NE visible
24 Sep 5.0 21:24:26 10° NNW 21:27:10 30° N 21:27:10 30° N visible
24 Sep 6.3 23:06:49 10° NW 23:07:08 11° NW 23:07:08 11° NW visible
25 Sep 4.9 20:43:38 10° N 20:46:50 28° NNE 20:46:50 28° NNE visible
25 Sep 5.8 22:25:19 10° NW 22:26:48 19° NW 22:26:48 19° NW visible
26 Sep 5.0 20:03:00 10° N 20:06:31 21° NE 20:06:31 21° NE visible
26 Sep 5.3 21:44:07 10° NNW 21:46:30 28° NNW 21:46:30 28° NNW visible
27 Sep 5.4 19:22:41 10° N 19:25:22 14° NE 19:26:13 14° NE visible
27 Sep 4.7 21:03:05 10° NNW 21:06:12 37° N 21:06:12 37° N visible
27 Sep 6.3 22:45:52 10° NW 22:46:10 11° NW 22:46:10 11° NW visible
28 Sep 4.4 20:22:13 10° NNW 20:25:55 35° NNE 20:25:55 35° NNE visible
28 Sep 5.8 22:04:10 10° NW 22:05:55 19° NW 22:05:55 19° NW visible
29 Sep 4.7 19:41:30 10° N 19:45:40 25° NE 19:45:40 25° NE visible
29 Sep 5.0 21:22:51 10° NNW 21:25:39 32° NW 21:25:39 32° NW visible
30 Sep 5.1 19:01:00 10° N 19:04:17 17° NE 19:05:27 16° ENE visible
30 Sep 4.2 20:41:45 10° NNW 20:45:26 48° NNW 20:45:26 48° NNW visible
30 Sep 6.3 22:25:03 10° WNW 22:25:25 11° WNW 22:25:25 11° WNW visible
01 Oct 5.5 18:21:09 10° NNE 18:22:41 11° NE 18:24:14 10° NE visible
01 Oct 3.9 20:00:49 10° NNW 20:05:15 47° NE 20:05:15 47° NE visible
01 Oct 5.7 21:43:04 10° NW 21:45:14 20° WNW 21:45:14 20° WNW visible
02 Oct 4.3 19:20:01 10° N 19:24:33 30° NE 19:25:05 30° ENE visible
02 Oct 4.8 21:01:37 10° NW 21:05:04 36° WNW 21:05:04 36° WNW visible
03 Oct 4.9 18:39:25 10° N 18:43:10 20° NE 18:44:58 17° ENE visible
03 Oct 3.7 20:20:26 10° NNW 20:24:57 68° NW 20:24:57 68° NW visible
03 Oct 6.3 22:04:35 10° WNW 22:04:57 11° WNW 22:04:57 11° WNW visible
